Zurück zum Katalog

STARLINK-32227

AktivKommunikationVLEO
NORAD 60361·PAYLOAD·🇺🇸 United States

Gestartet Aug 4, 2024 von Vandenberg Space Force Base

Loading…

Nächste Überflüge (nächste 24 Stunden)

TLE

AktuellSource: CelesTrak SupGP

Epoche: Sep 14, 2026, 13:48 UTC

1 60361C 24138G   26257.57548611  .00063766  00000+0  18847-2 0  2577
2 60361  53.1589 151.6145 0001260  84.6389 350.8560 15.34346174    15

Verfolge STARLINK-32227 in Echtzeit mit AllMySat

Download on the App Store